Location: Hawks Ness
(60.2333°N, 1.1667°W)
Time: 22:53:48
(UTC+00:00)

Cosmos 1900 - Pass Details

Date: 22 October 2019
Orbit: 689 x 733 km, 66.1° (Epoch: 17 November)

Event Time Altitude Azimuth Distance (km) Brightness Sun altitude
Exits shadow 05:09:35 17° 302° (WNW) 1,775 5.9 -14.4°
Maximum altitude 05:13:22 60° 226° (SW) 803 4.4 -13.9°
Drops below altitude 10° 05:18:11 10° 147° (SSE) 2,153 7.3 -13.3°
Sets 05:20:31 0° 144° (SE) 3,063 8.2 -13.1°
